Location: Eboldshausen
(51.7766°N, 10.0050°E)
Time: 16:42:28
(UTC+00:00)

Cosmos 540 Rocket - Pass Details

Date: 15 November 2025
Orbit: 735 x 747 km, 74.1° (Epoch: 12 December)

Event Time Altitude Azimuth Distance (km) Brightness Sun altitude
Rises 17:10:12 0° 335° (NNW) 3,204 6.9 -15.4°
Reaches altitude 10° 17:12:34 10° 335° (NNW) 2,274 6.1 -15.8°
Maximum altitude 17:17:45 88° 65° (ENE) 753 3.4 -16.6°
Drops below altitude 10° 17:22:52 10° 156° (SSE) 2,251 5.8 -17.3°
Sets 17:25:12 0° 156° (SSE) 3,168 6.5 -17.7°
